sat.trackr.live / text

‹ back to catalog

STARLINK-35333

NORAD 66182 · 2025-243F

PAYLOAD ACTIVE UNKNOWN

§ Identity

Operator
Country
US
Launch date
2025-10-26
Launch site
AFETR
Launch vehicle
Mass (kg)
RCS (m²)

Purposes: comms

External: N2YO · Heavens-Above · Gunter

§ Orbital elements

Epoch: 2026-09-20T22:03:12.152160Z

Period
93.85 min
Inclination
53.1568°
Eccentricity
0.0000450
Mean motion
15.34412152 rev/d
Perigee alt
462.4 km
Apogee alt
463.0 km
Semi-major
6,840.8 km
B*
8.5714e-4
RAAN
55.6395°
Arg perigee
58.4371°
Mean anomaly
301.6675°
Rev number
5,058

§ Raw data

STARLINK-353331 66182U 25243F   26263.91889065  .00028706  00000+0  85714-3 0  99942 66182  53.1568  55.6395 0000450  58.4371 301.6675 15.34412152 50587

JSON: /api/v1/satellites/66182 · /tle

For live sub-satellite position, see the globe view (requires WebGL).

§ Visibility from observer

Set your observer location to see the next 7 days of passes ≥ 10°. The values pass through the URL so the page stays shareable.

No JS? Fill the form by hand. The geolocation button needs JavaScript.